This is the latest recevied weather packets stored in our database for station/object EB2EMZ-15. If no packets are shown the sender has not sent any weather packets the latest 10 day(s).
| Time | Temp. | Humidity | Pressure | Rain* | Wind** | Luminosity | Snow |
|---|---|---|---|---|---|---|---|
| 1778068216 | 17.22° C | 63% | 993.7 hPa | 0 mm | - | - | - |
| 1778067914 | 17.22° C | 64% | 993.8 hPa | 0 mm | - | - | - |
| 1778067615 | 17.22° C | 63% | 993.8 hPa | 0 mm | - | - | - |
| 1778067312 | 16.67° C | 63% | 993.9 hPa | 0 mm | - | - | - |
| 1778067016 | 17.22° C | 62% | 994 hPa | 0 mm | - | - | - |
| 1778066712 | 17.22° C | 61% | 993.9 hPa | 0 mm | - | - | - |
| 1778066416 | 17.22° C | 60% | 993.8 hPa | 0 mm | - | - | - |
| 1778066112 | 17.78° C | 59% | 993.9 hPa | 0 mm | - | - | - |
| 1778065816 | 18.33° C | 58% | 993.9 hPa | 0 mm | - | - | - |
| 1778065513 | 18.33° C | 58% | 993.8 hPa | 0 mm | - | - | - |
| 1778065212 | 18.89° C | 57% | 993.7 hPa | 0 mm | - | - | - |
| 1778064914 | 18.89° C | 57% | 993.7 hPa | 0 mm | - | - | - |
| 1778064616 | 19.44° C | 56% | 993.6 hPa | 0 mm | - | - | - |
| 1778064312 | 19.44° C | 56% | 993.7 hPa | 0 mm | - | - | - |
| 1778064016 | 19.44° C | 58% | 993.6 hPa | 0 mm | - | - | - |
| 1778063711 | 19.44° C | 58% | 993.6 hPa | 0 mm | - | - | - |
| 1778063415 | 19.44° C | 59% | 993.6 hPa | 0 mm | - | - | - |
| 1778063112 | 19.44° C | 59% | 993.7 hPa | 0 mm | - | - | - |
| 1778062814 | 19.44° C | 60% | 993.7 hPa | 0 mm | - | - | - |
| 1778062511 | 19.44° C | 60% | 993.7 hPa | 0 mm | - | - | - |
| 1778062215 | 19.44° C | 62% | 993.7 hPa | 0 mm | - | - | - |
| 1778061913 | 18.89° C | 62% | 993.7 hPa | 0 mm | - | - | - |
| 1778061611 | 18.33° C | 62% | 993.7 hPa | 0 mm | - | - | - |
| 1778061311 | 18.33° C | 63% | 993.9 hPa | 0 mm | - | - | - |
| 1778061015 | 18.33° C | 63% | 993.9 hPa | 0 mm | - | - | - |
* Rain latest hour (hover to see other rain measurements)
** Current wind speed in m/s (hover to see current wind gust speed)